TimeCDT,TemperatureF,Dew PointF,Humidity,Sea Level PressureIn,VisibilityMPH,Wind Direction,Wind SpeedMPH,Gust SpeedMPH,PrecipitationIn,Events,Conditions,WindDirDegrees,DateUTC
12:55 AM,42.6,42.6,100,30.02,10.0,Calm,Calm,-,N/A,,Mostly Cloudy,0,2011-10-25 05:55:00
1:55 AM,45.1,44.8,99,30.01,10.0,Calm,Calm,-,N/A,,Clear,0,2011-10-25 06:55:00
2:30 AM,44.6,44.6,100,30.01,10.0,Calm,Calm,-,N/A,,Light Drizzle,0,2011-10-25 07:30:00
2:51 AM,46.4,44.6,93,29.99,10.0,East,4.6,-,N/A,,Clear,90,2011-10-25 07:51:00
2:55 AM,45.9,45.7,99,29.99,10.0,NE,3.5,-,0.00,,Partly Cloudy,50,2011-10-25 07:55:00
3:09 AM,46.4,46.4,100,29.99,10.0,Calm,Calm,-,N/A,Rain,Light Rain,0,2011-10-25 08:09:00
3:19 AM,46.4,46.4,100,29.98,10.0,East,3.5,-,N/A,,Mostly Cloudy,90,2011-10-25 08:19:00
3:29 AM,46.4,46.4,100,29.99,10.0,Calm,Calm,-,N/A,Rain,Light Rain,0,2011-10-25 08:29:00
3:55 AM,46.4,46.4,100,29.97,10.0,East,4.6,-,0.01,,Light Drizzle,100,2011-10-25 08:55:00
3:58 AM,46.4,46.4,100,29.96,10.0,East,4.6,-,N/A,,Scattered Clouds,100,2011-10-25 08:58:00
4:55 AM,47.3,47.1,99,29.94,10.0,East,5.8,-,0.00,,Mostly Cloudy,80,2011-10-25 09:55:00
5:06 AM,48.2,48.2,100,29.93,9.0,ENE,6.9,-,N/A,Rain-Thunderstorm,Rain,70,2011-10-25 10:06:00
5:22 AM,46.4,46.4,100,29.94,10.0,Calm,Calm,-,N/A,,Mostly Cloudy,0,2011-10-25 10:22:00
5:55 AM,47.1,47.1,100,29.93,10.0,East,8.1,-,0.02,,Overcast,90,2011-10-25 10:55:00
6:55 AM,46.4,46.4,100,29.93,10.0,East,5.8,-,N/A,,Overcast,100,2011-10-25 11:55:00
7:55 AM,46.4,46.4,100,29.92,10.0,East,6.9,-,N/A,,Mostly Cloudy,90,2011-10-25 12:55:00
8:55 AM,48.2,48.2,100,29.92,10.0,East,10.4,-,N/A,,Overcast,80,2011-10-25 13:55:00
9:55 AM,50.0,48.2,94,29.91,10.0,East,11.5,-,N/A,,Overcast,90,2011-10-25 14:55:00
10:10 AM,50.0,48.2,94,29.88,10.0,East,15.0,19.6,N/A,,Overcast,90,2011-10-25 15:10:00
10:55 AM,50.0,48.2,94,29.89,10.0,ENE,11.5,-,N/A,,Overcast,70,2011-10-25 15:55:00
11:55 AM,53.6,46.4,77,29.86,10.0,East,12.7,-,N/A,,Overcast,90,2011-10-25 16:55:00
12:55 PM,55.4,46.4,72,29.84,10.0,ENE,9.2,-,N/A,,Overcast,60,2011-10-25 17:55:00
1:55 PM,51.8,44.6,76,29.82,10.0,ENE,9.2,-,N/A,,Overcast,60,2011-10-25 18:55:00
2:55 PM,51.8,44.6,76,29.81,10.0,NE,11.5,18.4,N/A,,Overcast,40,2011-10-25 19:55:00
3:55 PM,48.2,44.6,87,29.85,10.0,ENE,10.4,18.4,N/A,,Overcast,60,2011-10-25 20:55:00
4:55 PM,46.4,44.6,93,29.86,10.0,Variable,6.9,-,N/A,,Overcast,0,2011-10-25 21:55:00
5:24 PM,46.4,46.4,100,29.86,10.0,NE,9.2,17.3,N/A,,Overcast,50,2011-10-25 22:24:00
5:55 PM,46.4,44.6,93,29.88,10.0,NE,10.4,-,N/A,,Overcast,40,2011-10-25 22:55:00
6:55 PM,44.6,44.6,100,29.88,10.0,NE,11.5,18.4,N/A,,Overcast,50,2011-10-25 23:55:00
7:02 PM,44.6,44.6,100,29.86,10.0,ENE,9.2,18.4,N/A,,Light Drizzle,60,2011-10-26 00:02:00
7:29 PM,44.6,44.6,100,29.88,10.0,NE,6.9,-,N/A,,Overcast,50,2011-10-26 00:29:00
7:40 PM,44.6,44.6,100,29.89,10.0,NE,6.9,-,N/A,,Overcast,50,2011-10-26 00:40:00
7:55 PM,44.6,44.6,100,29.90,10.0,ENE,10.4,-,N/A,,Overcast,60,2011-10-26 00:55:00
8:43 PM,42.8,42.8,100,29.89,10.0,NE,5.8,-,N/A,,Light Drizzle,40,2011-10-26 01:43:00
8:55 PM,42.8,42.8,100,29.92,10.0,NNE,6.9,-,N/A,,Light Drizzle,20,2011-10-26 01:55:00
9:55 PM,42.8,42.8,100,29.92,10.0,NE,4.6,-,N/A,,Overcast,40,2011-10-26 02:55:00
10:22 PM,42.8,42.8,100,29.91,10.0,NNE,9.2,-,N/A,,Light Drizzle,30,2011-10-26 03:22:00
10:55 PM,41.0,41.0,100,29.94,10.0,NE,10.4,-,N/A,,Light Drizzle,50,2011-10-26 03:55:00
11:05 PM,41.0,41.0,100,29.91,10.0,NE,8.1,-,N/A,,Light Drizzle,50,2011-10-26 04:05:00
11:55 PM,41.0,41.0,100,29.96,10.0,NNE,8.1,-,N/A,,Light Drizzle,30,2011-10-26 04:55:00